Probability
0 0 0 0 0 0 0 0 0 0 0 0 0 0 0 0 0 0 0 0 0 0 0 0 0 0 0 0 0 0 0 0 0 0 0 0 0 0 0 0 0 0 0
0 0 0 0 0 0 0 0 0 0 0 0 0 0 0 0 0 0 0 0 0 0 0 0 0 0 0 0 0 0 0 0 0 0 0 0 0 0 0 0 0 0 0
0 0 0 0 0 0 0 0 0 0 0 0 0 0 0 0 0 0 0 0 0 0 0 0 0 0 0 0 0 0 0 0 0 0 0 0 0 0 0 0 0 0 0
0 0 0 0 0 0 0 0 0 0 0 0 0 0 0 0 0 0 0 0 0 0 0 0 0 0 0 0 0 0 0 0 0 0 0 0 0 0 0 0 0 0 0
0 0 0 0 0 0 0 0 0 0 0 0 0 0 0 0 0 0 0 0 0 0 0 0 0 0 0 0 0 0 0 0 0 0 0 0 0 0 0 0 0 0 0
0 0 0 0 0 0 0 0 0 0 0 0 0 0 0 0 0 0 0 0 0 0 0 0 0 0 0 0 0 0 0 0 0 0 0 0 0 0 0 0 0 0 0
0 0 0 1 1 2 1 0 0 0 0 0 0 0 0 0 0 0 0 0 0 0 0 0 0 0 0 0 0 0 0 0 0 0 0 0 0 0 0 0 0 0 0
0 0 1 2 3 4 3 1 0 0 0 0 0 0 0 0 0 0 0 0 0 0 0 0 0 0 0 0 0 0 0 0 0 0 0 0 0 0 0 0 0 0 0
0 0 2 3 4 4 3 1 0 0 0 0 0 0 0 0 0 0 0 0 0 0 1 1 1 0 0 0 0 0 0 0 0 0 0 0 0 0 0 0 0 0 0
0 0 1 2 3 3 2 1 0 0 0 0 0 0 0 0 0 0 0 0 0 0 1 1 1 0 0 0 0 0 0 0 0 0 0 0 0 0 0 0 0 0 0
0 0 1 2 2 3 2 2 1 1 0 0 0 0 0 0 0 0 0 0 0 0 0 0 0 0 0 0 0 0 0 0 0 0 0 0 0 0 0 0 0 0 0
0 0 0 1 3 3 2 2 2 1 0 0 0 0 0 0 0 0 0 0 0 0 0 0 0 0 0 0 0 0 0 0 0 0 0 0 0 0 0 0 0 0 0
0 0 1 1 2 3 2 2 1 1 0 0 0 0 0 0 0 0 0 0 0 0 0 0 0 0 0 0 0 0 0 0 0 0 0 0 0 0 0 0 0 0 0
0 1 2 2 2 1 1 1 0 0 0 0 0 0 0 0 0 0 0 0 0 0 0 0 0 0 0 0 0 0 0 0 0 0 0 0 0 0 0 0 0 0 0
0 1 2 3 2 0 0 0 0 0 0 0 0 0 0 0 0 0 0 0 0 0 0 0 0 0 0 0 0 0 0 0 0 0 0 0 0 0 0 0 0 0 0
0 1 2 2 1 0 0 0 0 0 0 0 0 0 0 0 0 0 0 0 0 0 0 0 0 0 0 0 0 0 0 0 0 0 0 0 0 0 0 0 0 0 0
0 0 1 1 0 0 0 0 0 0 0 0 0 0 0 0 0 0 0 0 0 0 0 0 0 0 0 0 0 0 0 0 0 0 0 0 0 0 0 0 0 0 0
0 0 0 0 0 0 0 0 0 0 0 0 0 0 0 0 0 0 0 0 0 0 0 0 0 0 0 0 0 0 0 0 0 0 0 0 0 0 0 0 0 0 0
0 0 0 0 0 0 0 0 0 0 0 0 0 0 0 0 0 0 0 0 0 0 0 0 0 0 0 0 0 0 0 0 0 0 0 0 0 0 0 0 0 0 0
0 0 0 0 0 0 0 0 0 0 0 0 0 0 0 0 0 0 0 0 0 0 0 0 0 0 0 0 0 0 0 0 0 0 0 0 0 0 0 0 0 0 0
0 0 0 0 0 0 0 0 0 0 0 0 0 0 0 0 0 0 0 0 0 0 0 0 0 0 0 0 0 0 0 0 0 0 0 0 0 0 0 0 0 0 0
1 0 0 0 0 0 0 0 0 0 0 0 0 0 0 0 0 0 0 0 0 0 0 0 0 0 0 0 0 0 0 0 0 0 0 0 0 0 0 0 0 0 0
1 0 0 0 0 0 0 0 0 0 0 0 0 0 0 0 0 0 0 0 0 0 0 0 0 0 0 0 0 0 0 0 0 0 0 0 0 0 0 0 0 0 0
1 0 0 0 0 0 0 0 0 0 0 0 0 0 0 0 0 0 0 0 0 0 0 0 0 0 0 0 0 0 0 0 0 0 0 0 0 0 0 0 0 0 0
0 0 0 0 0 0 0 0 0 0 0 0 0 0 0 0 0 0 0 0 0 0 0 0 0 0 0 0 0 0 0 0 0 0 0 0 0 0 0 0 0 0 0
0 0 0 0 0 0 0 0 0 0 0 0 0 0 0 0 0 0 0 0 0 0 0 0 0 0 0 0 0 0 0 0 0 0 0 0 0 0 0 0 0 0 0
Wind_Speed
8 6 5 4 4 4 6 5 4 4 3 2 2 2 2 3 3 3 4 4 5 5 4 4 4 5 4 4 5 4 4 3 3 2 2 2 3 3 2 3 3 3 4
8 6 5 3 3 4 4 4 4 4 4 2 2 2 2 3 3 3 4 5 5 6 5 5 4 4 4 5 5 4 4 3 4 3 2 2 3 4 3 3 3 4 3
9 8 6 4 3 4 4 4 4 5 4 3 2 2 2 2 2 3 2 4 5 5 5 5 4 4 4 4 4 5 5 4 4 4 3 2 2 3 3 4 4 4 3
7 7 6 6 5 4 3 4 3 5 4 4 2 2 2 2 2 2 2 3 4 4 5 5 5 5 4 4 5 5 4 4 4 3 3 2 1 1 2 3 4 4 4
8 7 7 6 6 5 4 4 4 5 4 4 3 2 3 2 2 2 3 3 3 3 4 4 4 4 3 4 4 5 5 4 4 3 3 4 3 3 2 2 3 3 3
8 8 7 6 6 5 4 4 5 5 3 3 3 3 3 3 3 3 2 1 1 2 3 4 4 4 3 3 3 4 4 4 5 4 4 3 3 3 3 2 2 2 2
9 8 8 7 7 6 5 5 5 4 3 3 3 4 2 3 2 2 1 1 2 2 3 4 3 3 3 3 3 3 3 4 4 4 3 3 3 3 3 3 2 2 2
9 9 9 7 7 7 6 5 5 4 3 3 3 3 3 1 2 1 1 2 2 2 2 2 3 3 3 4 3 3 3 4 4 4 4 3 3 3 3 2 2 3 2
10 9 9 8 8 7 6 6 6 5 4 3 3 2 3 2 2 1 2 2 2 1 2 1 2 2 3 3 3 3 3 4 3 3 3 3 2 2 3 2 2 2 2
10 10 9 9 8 7 6 6 6 6 4 3 3 3 3 3 2 2 3 2 2 1 1 1 2 3 3 3 3 2 2 3 2 2 3 3 2 2 2 2 2 2 1
10 9 8 8 8 7 7 6 6 5 5 4 3 3 3 3 3 2 2 1 2 1 1 1 2 3 2 3 3 2 3 3 3 3 3 3 3 3 3 3 3 3 2
9 9 9 8 8 8 7 7 6 5 5 4 4 4 4 4 4 4 3 2 2 1 0 1 2 2 2 2 2 2 2 2 3 3 3 3 3 3 2 2 3 2 2
9 9 8 8 8 7 7 7 6 6 5 4 4 5 5 5 4 4 3 2 2 2 1 2 3 3 2 2 2 2 2 2 2 2 3 3 4 3 3 3 3 3 3
8 8 8 8 7 7 6 6 6 6 6 5 4 4 5 5 4 4 3 2 1 1 1 2 3 3 3 3 3 3 3 2 2 2 2 2 3 3 3 3 4 4 4
9 9 8 7 8 7 7 6 6 6 6 5 5 4 4 4 4 4 3 2 1 1 2 2 3 3 2 3 4 4 4 3 2 2 2 2 2 2 2 3 3 3 3
9 9 9 8 8 8 8 7 7 7 6 6 5 4 3 4 4 4 3 2 2 1 2 2 2 2 2 4 4 4 3 3 3 2 2 1 1 2 3 5 5 4 3
8 9 9 9 8 9 9 8 8 7 7 6 5 5 4 4 4 4 4 3 2 2 1 1 1 2 2 2 2 3 3 3 3 2 2 2 3 3 2 4 5 5 7
7 8 8 8 8 7 8 7 7 7 7 6 5 5 5 5 4 4 4 3 3 2 2 2 2 2 1 1 1 3 3 3 3 2 2 2 2 3 4 4 4 4 4
6 6 6 7 7 7 7 8 8 7 7 6 6 6 6 6 5 5 4 3 3 2 3 2 2 2 1 2 1 2 2 2 3 2 1 2 1 4 5 4 4 5 5
5 5 5 6 6 6 7 7 7 7 7 6 6 6 6 6 6 5 4 3 3 3 2 2 2 3 2 3 3 2 1 2 3 2 1 1 2 4 5 3 4 5 5
5 5 5 5 5 6 7 6 6 6 6 6 6 6 6 6 5 5 4 3 3 3 3 3 3 3 3 4 5 3 1 2 2 2 1 1 3 5 6 6 4 7 8
5 5 4 4 4 5 6 5 5 5 5 6 6 5 5 5 5 5 4 4 4 4 3 3 3 3 4 4 5 5 5 4 2 3 2 2 5 7 8 7 8 12 10
5 4 4 4 4 5 5 5 4 5 5 6 5 5 5 4 4 5 5 4 4 3 3 3 3 3 2 3 5 6 6 5 3 3 5 6 8 8 7 9 11 9 5
4 4 4 4 4 4 5 4 4 5 5 6 6 5 5 5 5 4 4 4 3 3 3 3 3 3 2 2 2 3 3 4 4 4 5 8 9 7 8 8 7 5 4
4 4 4 4 4 4 5 5 5 5 5 5 5 5 5 5 4 4 4 4 4 4 4 3 3 3 3 4 4 3 2 3 3 3 3 3 4 4 4 4 4 4 3
4 4 4 4 4 5 5 5 5 5 5 4 4 3 3 3 4 4 3 5 5 7 8 6 5 3 5 5 5 5 5 5 5 3 3 4 4 5 4 4 4 4 3
Wind_Direction
134 126 123 132 127 115 112 117 114 94 83 59 65 72 68 63 51 51 32 34 29 16 25 29 25 27 25 21 21 11 7 359 0 16 10 18 51 57 61 46 37 44 45
149 145 144 141 130 115 114 119 107 95 92 84 83 88 86 90 84 57 34 30 37 16 23 33 34 36 28 25 22 19 9 358 15 24 20 13 11 9 40 46 45 49 37
163 160 160 152 139 126 127 119 125 120 113 105 79 69 66 64 78 77 58 38 42 25 14 21 31 33 36 26 24 26 22 10 8 32 46 47 11 335 360 29 42 37 36
166 160 164 161 152 140 130 125 116 107 108 106 81 98 97 84 75 81 89 72 50 39 19 20 31 39 34 27 28 31 21 28 11 4 22 43 59 27 352 1 21 31 41
171 168 167 160 148 142 133 118 104 89 83 90 78 62 71 86 79 73 70 71 57 47 32 27 34 38 34 31 36 35 32 31 25 13 10 11 14 20 49 3 359 13 24
170 165 156 145 136 128 120 104 96 90 88 103 108 93 88 86 85 74 70 86 82 57 48 46 39 36 31 32 31 43 44 37 32 26 24 25 25 8 18 15 5 9 350
169 163 155 151 139 137 136 130 125 129 140 138 124 113 103 102 98 100 79 68 74 53 49 57 52 38 27 39 33 40 47 51 46 36 21 22 27 19 19 19 355 351 334
169 164 158 152 145 147 153 147 140 144 152 153 131 127 127 109 100 81 87 76 76 67 59 67 67 55 37 36 39 36 38 46 48 42 36 28 21 23 22 22 11 359 354
164 160 156 154 153 157 159 155 152 155 162 152 132 124 120 107 115 123 87 78 89 74 47 83 89 81 70 50 41 45 41 43 36 31 34 32 22 25 10 11 28 39 1
164 160 157 158 160 161 163 166 160 156 159 159 157 132 125 120 117 105 94 89 87 67 337 36 92 81 80 74 52 37 34 49 42 39 40 27 15 17 12 3 4 19 19
162 161 159 160 160 157 162 164 159 158 162 161 146 143 150 147 148 126 125 142 135 186 205 59 88 84 79 86 72 38 33 36 28 26 46 35 23 17 8 1 6 7 13
160 158 158 158 159 163 169 167 167 161 161 163 158 162 157 162 167 158 169 177 156 181 204 130 101 90 74 70 77 51 40 37 28 19 26 17 23 19 6 2 1 351 353
157 157 158 162 165 168 173 171 168 162 161 163 166 168 171 171 172 163 163 174 162 174 193 105 92 89 70 56 35 39 25 34 27 19 23 17 22 11 359 1 358 343 345
161 160 161 164 165 170 175 169 164 157 160 167 180 183 176 162 166 161 155 169 155 147 108 93 90 82 65 48 25 17 5 7 14 17 24 28 34 20 360 359 352 350 347
166 168 168 167 168 173 177 170 164 162 165 169 181 183 170 154 152 141 144 144 124 126 109 104 95 80 64 43 35 8 352 353 356 353 356 43 38 19 360 350 339 342 334
173 171 174 173 177 179 179 172 167 169 169 173 176 167 155 141 142 145 149 138 129 107 90 85 86 75 57 64 45 11 344 334 338 338 347 9 357 342 330 322 317 318 321
173 174 179 180 184 184 178 173 171 168 169 169 166 160 156 149 152 158 150 148 150 137 112 110 107 106 95 74 28 347 322 315 321 330 327 325 352 355 326 310 300 293 291
171 176 179 179 179 178 173 167 163 167 169 165 164 160 159 157 155 155 160 168 164 159 162 180 166 140 149 177 316 314 298 294 296 301 311 317 339 349 345 330 324 306 290
168 172 175 170 170 173 169 163 165 168 168 168 167 164 161 160 161 165 168 169 169 170 175 184 175 171 201 216 246 302 294 289 291 288 329 355 358 344 345 334 317 311 307
150 157 162 164 167 168 161 164 170 171 172 168 166 163 163 164 168 172 173 171 172 180 179 188 190 189 192 200 217 244 262 285 290 289 278 325 321 326 333 320 310 305 303
136 143 154 164 166 160 157 167 171 174 165 156 157 158 160 165 169 172 172 170 175 183 195 201 199 197 200 203 207 216 220 261 286 290 285 277 304 307 305 302 285 286 297
132 140 151 154 151 151 155 166 171 162 147 146 151 159 162 170 174 169 175 180 183 190 203 210 218 211 202 197 208 218 225 247 272 285 282 274 293 294 294 291 285 291 299
142 144 146 144 147 152 157 168 163 147 143 147 156 162 165 168 167 172 180 186 189 193 206 208 217 223 209 196 206 219 235 251 258 274 287 288 288 292 289 281 283 289 283
150 150 152 159 167 164 162 164 152 149 154 164 169 173 177 177 179 178 181 186 195 203 212 212 218 222 212 199 201 214 230 249 262 273 284 288 286 280 277 279 275 260 254
157 162 169 170 173 166 167 164 159 161 172 179 178 180 182 181 181 181 188 193 197 196 201 213 211 208 222 215 200 204 225 236 246 273 275 275 276 273 271 270 267 261 263
164 169 169 170 179 175 172 170 168 173 183 190 188 185 180 178 180 183 198 211 208 205 209 211 214 221 217 218 220 224 236 249 256 265 262 264 263 265 268 271 271 268 265